STARLINK-32123, 60284

Orbit data source: Space-Track

STARLINK-32123, 60284 is a payload satellite owned by SpaceX/Seattle (US) in LEO that was launched on Sun, 28 Jul 2024 UTC via an FALCON 9 launch vehicle from the Air Force Eastern Test Range (AFETR). Payload-class satellites include a variety of spacecraft equipped with specific instruments for various scientific and technological missions. These include communications satellites like Starlink; space stations such as the ISS; scientific satellites like the Hubble; Earth observation satellites from companies like Planet Labs, Umbra, and HawkEye 360; GPS; miniature CubeSats for education and research; and military/defense satellites.

Loading next visibility...
Identifier
60284, 2024-132G
Orbit
LEO
Country
Flag of USUS
Related business
Manufacturer
SpaceX/Seattle
Mission
Operational spacecraft
Bus & Motor
STARLINK V2M, Unknown motor
Mass
730 kg wet, ~700 kg dry
Launch date (UTC)
2024-07-28 (1 year ago)
Launch vehicle
FALCON 9
Launch site
Air Force Eastern Test Range (AFETR)
Object type
Payload
Rocket body
Debris
Shape & HBR
Unknown
Radar Cross Section
Large (>1 m²)

Expand to show TLE details & history
Last TLE update: 1 day ago

TLE from 1 day ago
0 STARLINK-32123
1 60284U 24132G   25258.94102261  .00003286  00000-0  12300-3 0  9997
2 60284  53.1595 131.4904 0001190  92.1611 267.9526 15.30200737 64985
Epoch: 2025-09-15T22:35Z
TLE epoch observation values (Epoch: 2025-09-15T22:35:04.353Z)
Latitude
-0.00002°
Longitude
157.58379°
Altitude
476.142 km
Speed
7.629 km/s
True Right ascension
08h 45m 57s
True Declination
0° 00' 00"
Sunlit
Object was in daylight at epoch
Visualization orbit readout
Latitude
Unknown
Longitude
Unknown
Altitude
Unknown
Speed
Unknown
Apparent Right ascension
Unknown
Apparent Declination
Unknown
Sunlit
N/A
Visualization observer readout
Local Sidereal Time
17:56:20
Azimuth
Unknown
Elevation
Unknown
Doppler factor
Unknown
Orbital elements
Apogee altitude
476.285 km
Perigee altitude
474.654 km
Semi-major axis
6,853.606 km
Eccentricity
0.00012
Inclination
53.1595°
RAAN
131.4904°
Arg. of periapsis
92.1611°
True anomaly
267.93897°
Mean anomaly
267.9526°
Eccentric anomaly
267.94579°
Mean motion
3.82529 °/min
Orbital period
94.11 mins
BSTAR
0.000123
Loading maneuver chart data...
Computing Atmospheric mass density...
Loading historical data...
Loading historical data...
Loading historical data...
Loading historical data...
Loading historical data...
Loading historical data...
Loading historical data...

Documentation

Showing up to 5 results
|